Torna al catalogo

COSMOS 1823 DEB

AttivoLEO
NORAD 18756·DEBRIS·🇷🇺 Russia

Lanciato Feb 20, 1987 da Plesetsk Cosmodrome

Loading…

Prossimi Passaggi (prossime 24 ore)

TLE

AggiornatoSource: Space-Track

Epoca: Sep 14, 2026, 00:48 UTC

1 18756U 87020AH  26257.03371251  .00000055  00000-0  51521-3 0  9995
2 18756  73.6283 265.2559 0030695   5.6469  22.4743 12.44201517757418

Traccia COSMOS 1823 DEB in tempo reale con AllMySat

Download on the App Store